Location: Grilly
(46.3299°N, 6.1170°E)
Time: 06:51:18
(UTC+00:00)

Daily predictions for brighter satellites

Satellite Brightness Start Highest point End
(mag) Time Altitude Azimuth Time Altitude Azimuth Time Altitude Azimuth
Cosmos 2227 Rocket 4.5 18:01:34 10° WSW 18:06:12 25° NW 18:10:51 10° N
Lacrosse 5 rocket 2.9 18:02:52 10° W 18:06:46 36° NNW 18:10:53 10° NE
CSL-04 Debris 4.3 18:02:36 10° SSE 18:07:52 59° ENE 18:13:11 10° N
Cosmos 1939 Rocket 3.8 18:06:14 10° S 18:10:16 55° W 18:14:22 10° NNW
CZ-2D R/B 3.7 18:06:27 10° S 18:10:19 70° WSW 18:14:13 10° NNW
Sich 1 Rocket 4.3 18:06:55 10° SSE 18:10:57 34° E 18:15:02 10° NNE
Meteor 1-21 4.2 18:08:17 10° N 18:13:53 66° ENE 18:19:25 10° SSE
MOS 1 Rocket 3.8 18:10:46 10° NNE 18:14:49 33° E 18:18:43 10° SSE
Helios 1A Rocket 4.2 18:11:05 10° S 18:15:01 46° W 18:19:02 10° NNW
Cosmos 1603 3.8 18:09:57 10° NNW 18:15:38 85° WSW 18:21:16 10° SSE
CSL-04 Rocket 3.7 18:10:57 10° SSE 18:16:18 66° ENE 18:21:46 10° N
SJ 16-02 2.6 18:14:28 10° SW 18:18:41 46° WNW 18:22:57 10° N
Cosmos 1937 Rocket 3.5 18:17:10 10° S 18:22:24 71° ESE 18:27:37 10° NNE
NOSS 8 (H) 4.1 18:19:53 10° SW 18:23:06 90° WSW 18:26:07 10° NE
Cosmos 1680 Rocket 4.5 18:19:17 10° NNW 18:24:21 52° WSW 18:29:24 10° S
Abrixas rocket 2.1 18:26:27 10° W 18:29:17 62° N 18:31:44 13° ENE
Okean 2 Rocket 3.7 18:25:27 10° SSE 18:29:30 33° E 18:33:32 10° NNE
Cosmos 1464 Rocket 4.2 18:25:21 10° SSE 18:31:06 45° E 18:36:55 10° NNE
NOSS 2-2 (E) 3.1 18:28:00 10° SSW 18:31:26 59° SE 18:35:15 10° NE
SL-08 RB Rocket 4.2 18:27:55 10° SE 18:32:11 39° ENE 18:36:25 10° N
USA 116 3.5 18:31:54 10° NNE 18:35:21 85° WNW 18:39:10 10° SSW
Okean-O 4.1 18:31:33 10° S 18:35:44 41° W 18:39:57 10° NNW
Okean 2 4.2 18:32:02 10° NNW 18:36:09 57° W 18:40:13 10° S
ATLAS 2AS CENTAUR R/B 4.3 18:33:21 10° SE 18:37:22 15° ESE 18:41:22 10° ENE
Cosmos 1300 Rocket 4.0 18:33:59 10° SSE 18:38:04 39° E 18:42:12 10° NNE
CZ-2C R/B 3.2 18:36:38 10° SSW 18:38:18 13° S 18:39:56 10° SSE
NOSS 2-2 (D) 3.1 18:36:42 10° SSW 18:40:07 56° SE 18:43:52 10° NE
Iridium 4 Rocket 4.3 18:39:22 10° SSW 18:44:12 57° W 18:49:33 10° N
USA 102 3.4 18:38:58 11° SE 18:44:41 33° E 18:45:14 31° ENE
YAOGAN 1 3.8 18:40:57 10° S 18:45:05 44° W 18:49:15 10° NNW
CENTAUR R/B 3.7 18:38:03 10° NW 18:45:31 44° NE 18:51:58 17° ESE
Cosmos 1975 4.0 18:41:55 10° SSW 18:45:52 48° WNW 18:49:51 10° N
H-2A R/B 2.1 18:44:12 10° S 18:49:09 80° WSW 18:54:16 10° NNW
CZ-4 R/B 3.4 18:46:45 10° SSW 18:50:32 32° W 18:54:19 10° NNW
Cosmos 1437 4.3 18:47:58 10° NNW 18:50:45 35° W 18:53:30 10° SSW
Cosmos 1674 3.9 18:48:03 10° NNE 18:51:15 24° ENE 18:52:09 22° E
ATLAS 3B R/B 4.2 18:46:41 10° NNW 18:52:00 24° NNE 18:56:56 12° ENE
Exosat Rocket 4.4 18:49:08 10° SSE 18:53:49 27° ESE 18:58:01 10° NE
ISS -3.7 18:51:05 10° SW 18:54:24 56° SSE 18:56:08 25° ENE
Cosmos 1048 Rocket 4.4 18:49:24 10° NNW 18:54:31 46° ENE 18:58:02 19° SE
Cosmos 1536 Rocket 3.9 18:51:35 10° N 18:55:52 45° ENE 18:58:59 17° SE
USA 238 DEB 4.0 18:50:04 10° NW 18:57:10 60° NE 19:02:30 20° ESE
USA 238 4.0 18:50:10 10° NW 18:57:17 59° NE 19:02:35 20° ESE
In-Cosmos 22 4.0 18:53:11 10° N 18:58:28 67° ENE 19:03:47 10° SSE
Cosmos 1891 Rocket 4.4 18:52:23 10° S 18:58:31 76° E 19:04:35 10° NNE
ARGOS 3.2 18:57:19 10° SSE 19:02:41 81° WSW 19:08:05 10° NNW
Cosmos 1025 Rocket 2.9 19:01:30 10° N 19:05:53 76° E 19:10:01 11° SSE
CZ-2C R/B 2.8 19:00:43 10° NNE 19:06:09 54° E 19:11:37 10° S
Cosmos 1707 3.0 19:05:18 10° NNW 19:09:08 66° W 19:12:55 10° S
Cosmos 2151 Rocket 3.5 19:06:27 10° S 19:10:50 64° E 19:15:18 10° NNE
KORONAS-FOTON 4.3 19:09:12 10° N 19:12:56 40° ENE 19:13:36 37° ESE
USA 186 1.8 19:13:02 24° S 19:14:46 78° W 19:18:01 10° NNW
CREW DRAGON DEMO-1 DEB 4.1 19:14:38 10° WNW 19:17:24 31° N 19:18:00 28° NNE
Ariane Rocket 2.9 19:12:56 12° SSE 19:17:37 87° ENE 19:22:44 10° NNW
SJ-6B 2.5 19:16:15 29° SSE 19:18:01 76° ENE 19:21:47 10° N
Cosmos 1844 3.9 19:14:39 10° S 19:20:03 45° ESE 19:25:26 10° NE
FREGAT/IRIS 2.4 19:20:39 63° N 19:20:39 63° N 19:22:55 10° N
Cosmos 2263 Rocket 3.8 19:17:08 10° WSW 19:22:15 36° NW 19:27:25 10° NNE
Nadezhda 4 Rocket 3.9 19:17:18 10° N 19:23:28 82° E 19:29:17 12° S
Cosmos 494 Rocket 4.2 19:19:07 10° NNW 19:24:16 53° ENE 19:26:06 36° ESE
NOSS 2-2 (C) 3.9 19:21:18 10° SW 19:24:45 52° NW 19:28:38 10° NNE
NOSS 3-2 (A) 4.0 19:17:25 10° NW 19:24:57 85° NE 19:30:19 25° SE
MOS 1 4.2 19:21:25 15° SSE 19:26:18 88° ENE 19:32:03 10° NNW
Cosmos 2034 Rocket 4.0 19:22:15 10° S 19:28:38 86° E 19:35:01 10° N
Cosmos 1844 Rocket 2.6 19:23:14 10° SSW 19:28:43 65° ESE 19:34:16 10° NNE
Cosmos 2298 Rocket 4.0 19:25:48 10° SSW 19:31:08 89° W 19:36:31 10° NNE
SPOT 3 Rocket 3.6 19:32:57 40° SE 19:34:35 58° ENE 19:39:39 10° N
Resurs 01 Rocket 1.9 19:42:53 50° ENE 19:42:53 50° ENE 19:47:12 10° N
USA 234 3.2 19:37:13 11° ENE 19:43:29 57° SE 19:49:54 10° SW
SWAS 4.3 19:41:17 10° NNW 19:45:37 76° ENE 19:45:52 72° E
MetOp-A 4.3 19:42:59 21° S 19:46:39 69° WSW 19:52:01 10° NNW
Lacrosse 5 rocket 3.6 19:43:40 10° NW 19:47:00 21° N 19:49:28 14° NE
Cosmos 1833 Rocket 3.7 19:46:06 10° N 19:51:00 29° NE 19:51:25 29° ENE
OBJECT-B 1.6 19:52:33 49° NW 19:52:33 49° NW 19:55:05 10° NNW
Meteor 1-15 Rocket 4.2 19:47:30 10° SSW 19:53:07 82° W 19:58:52 10° N
Cosmos 1626 3.5 19:53:57 10° N 19:56:03 30° NNE 19:56:03 30° NNE
DMSP B5D2-2 4.5 19:54:32 10° N 19:59:47 64° WNW 20:05:00 10° SSW
NOSS 3-2 (C) 4.0 19:52:13 10° NW 19:59:47 88° NE 20:03:03 42° SE
ARIANE 5 R/B 3.6 20:01:02 35° NNE 20:01:02 35° NNE 20:04:01 10° N
Cosmos 1634 Rocket 3.8 19:59:03 41° SSE 20:01:15 70° E 20:07:25 10° NNE
BREEZE-M TANK 2.7 19:57:36 10° WSW 20:04:37 71° S 20:04:37 71° S
Cosmos 2285 Rocket 3.9 20:02:19 10° SSW 20:08:38 87° WNW 20:15:02 10° NNE
Cosmos 1125 Rocket 3.7 20:03:25 10° SSW 20:08:43 71° WNW 20:14:03 10° NNE
Okean 1 Rocket 3.3 20:08:19 58° SW 20:09:00 68° W 20:13:31 10° N
ERS-1 Rocket 4.4 20:17:27 26° NE 20:17:27 26° NE 20:20:22 10° N
Resurs 1-3 4.4 20:18:55 45° WSW 20:19:19 46° W 20:23:35 10° NNW
Cosmos 1092 Rocket 4.4 20:16:53 10° NNW 20:22:54 58° W 20:25:37 33° SSW
Meteor 2-5 Rocket 4.0 20:18:35 10° NNW 20:24:10 63° W 20:25:27 49° SSW
ATLAS 2AS CENTAUR R/B 2.9 20:19:10 10° SSW 20:27:00 66° ESE 20:34:48 10° NE
Cosmos 2026 Rocket 4.2 20:22:51 10° NNW 20:29:11 70° W 20:30:53 49° SSW
Cosmos 2098 Rocket 4.4 20:23:33 10° N 20:30:00 52° ENE 20:30:00 52° ENE
ISS -0.9 20:28:07 10° W 20:29:07 17° WNW 20:29:07 17° WNW
Cosmos 2082 Rocket 3.3 20:28:04 10° NNW 20:32:16 32° NNE 20:32:16 32° NNE
Meteor 1-22 Rocket 4.4 20:34:25 62° SW 20:35:21 75° WNW 20:41:25 10° N
CENTAUR R/B 3.3 20:28:44 10° NW 20:36:48 67° WSW 20:39:10 50° S
SPOT 1/Viking Rocket 4.2 20:43:21 49° N 20:43:21 49° N 20:47:09 10° N
COSMOS 2406 3.4 20:38:18 10° NNW 20:43:10 66° NNW 20:43:10 66° NNW
ATLAS 3B R/B 2.8 20:37:15 10° NW 20:44:03 63° NE 20:44:10 63° NE
Cosmos 2279 Rocket 3.9 20:44:34 81° N 20:44:34 81° N 20:50:32 10° N
Meteor 1-24 Rocket 4.2 20:41:33 10° NNW 20:46:53 53° W 20:47:08 52° WSW
Spot 2 Rocket 4.3 20:51:06 48° NNW 20:51:06 48° NNW 20:54:44 10° NNW
Terra 3.8 21:02:36 22° N 21:02:36 22° N 21:04:27 10° N
Cosmos 2278 Rocket 4.3 21:07:57 16° NNE 21:07:57 16° NNE 21:09:00 10° NNE
Lacrosse 4 Rocket 4.1 21:05:42 10° NNW 21:06:37 16° NNW 21:06:37 16° NNW
Cosmos 909 Rocket 4.5 21:04:06 10° NNW 21:09:31 55° N 21:09:31 55° N
Resurs 01 Rocket 4.1 21:20:28 18° WNW 21:20:28 18° WNW 21:22:46 10° NW
USA 234 3.7 21:24:43 44° NNE 21:26:31 57° NNW 21:32:54 10° WSW
Lacrosse 5 rocket 4.1 21:23:29 10° NW 21:25:05 18° NNW 21:25:05 18° NNW
Cosmos 1833 Rocket 4.1 21:29:44 10° NW 21:33:07 35° NW 21:33:07 35° NW
Cosmos 2082 Rocket 4.3 22:12:05 10° NW 22:14:06 22° NW 22:14:06 22° NW
ATLAS 2AS CENTAUR R/B 4.0 22:10:58 10° WSW 22:18:29 43° NW 22:25:51 10° NNE
ATLAS 3B R/B 4.4 22:28:23 10° NW 22:31:25 24° WNW 22:31:25 24° WNW
Cosmos 2278 Rocket 4.5 22:49:46 19° NNW 22:49:46 19° NNW 22:52:25 10° N
CZ-4C R/B 4.5 23:34:17 22° NNE 23:34:17 22° NNE 23:36:54 10° NNE
